[[{"header":{"parameterUnit":"m.s-1","parameterCategory":1,"la1":30.2991,"la2":30.254,"lo1":-89.0895,"lo2":-89.0444,"dy":0.0017,"dx":0.0017,"nx":28,"ny":28,"refTime":"2024-06-25T09:00:00:Z","depth":0,"parameterNumber":2,"parameterNumberName":"U-component_of_WINDS"},"data":[0,0,0,0,0,0,0,0,0,0,0,0,0,0,0,0,0,0,0,0,0,0,0,0,0,0,0,0,0,0,0,0,0,0,0,0,0,0,0,0,0,0,0,0,0,0,0,0,0,0,0,0,0,0,0,0,0,0,4.5985,4.5987,0,4.617,4.6172,4.6174,4.615,4.6146,4.6143,4.614,4.6333,4.6341,4.6349,0,0,0,0,0,0,0,0,0,0,0,0,0,4.5612,4.5619,4.5985,4.5987,4.599,4.617,4.6172,4.6175,4.615,4.6146,4.6143,4.6139,4.6331,4.634,4.635,0,0,0,0,0,0,0,0,0,0,0,0,0,4.5783,4.5621,4.5984,4.5999,4.6002,4.6169,4.6172,4.6176,4.6151,4.6146,4.6142,4.6137,4.6327,4.6339,4.6351,4.6517,0,0,4.6387,4.6393,0,0,0,0,0,0,0,0,4.5774,4.5797,4.5994,4.5998,4.6002,4.6132,4.6111,4.629,4.6152,4.6094,4.614,4.6135,4.627,4.6287,4.6331,4.6526,4.6534,4.6389,4.6396,4.6401,4.6404,0,0,0,0,0,0,0,4.5762,4.5789,4.6058,4.5997,4.6002,4.5997,4.6016,4.6145,4.6206,4.6099,4.6098,4.612,4.6271,4.632,4.6336,4.6537,4.6388,4.6399,4.6406,4.6411,4.6876,4.688,0,0,0,0,0,0,4.5746,4.5779,4.6052,4.6064,4.5874,4.6007,4.6029,4.6095,4.6204,4.6217,4.6124,4.6118,4.6302,4.6322,4.6342,4.6543,4.6401,4.6412,4.6419,4.687,4.6877,4.6882,0,0,0,0,0,0,4.5738,4.577,4.6045,4.5921,4.5956,4.6018,4.6093,4.6101,4.6149,4.6223,4.6234,4.6162,4.6299,4.6326,4.6473,4.6549,4.6417,4.6428,4.6864,4.6872,4.688,4.6946,0,0,0,0,0,0,4.5727,4.5768,4.5831,4.5923,4.5962,4.6172,4.6098,4.6108,4.617,4.6164,4.6262,4.6274,4.6297,4.6455,4.6485,4.6563,4.6438,4.6858,4.6868,4.6877,4.6937,4.6955,4.697,0,0,0,0,0,4.5714,4.5843,4.5834,4.5867,4.6043,4.6176,4.6199,4.6223,4.6176,4.624,4.6287,4.627,4.6536,4.6471,4.6504,4.6587,4.6853,4.6865,4.6876,4.693,4.6951,4.6969,0,0,0,0,0,0,4.576,4.5855,4.5847,4.6009,4.6085,4.6172,4.6254,4.6246,4.6337,4.6328,4.6355,4.6377,4.6526,4.6571,4.6497,4.6753,4.6688,4.6707,4.6717,4.6739,4.6755,4.674,4.6448,0,0,0,0,0,4.5788,4.5888,4.5967,4.6103,4.6141,4.6191,4.625,4.6262,4.6342,4.6374,4.6432,4.651,4.6612,4.6678,4.6775,4.6944,4.6964,4.7017,4.7033,4.7047,4.7062,4.7154,4.7178,4.692,4.692,4.692,0,0,4.5849,4.5914,4.5976,4.6114,4.6173,4.6277,4.6218,4.633,4.6407,4.6391,4.6533,4.6579,4.6668,4.6827,4.6899,4.6869,4.7138,4.7061,4.7071,4.708,4.7168,4.7193,4.7214,4.6928,4.6927,4.6926,0,0,4.6013,4.6072,4.6191,4.6252,4.6343,4.6375,4.6404,4.6492,4.6521,4.6664,4.6654,4.6747,4.6921,4.6984,4.704,4.7227,4.7214,4.7258,4.7344,4.7433,4.7453,4.7471,4.7537,4.756,4.7273,4.7274,4.7274,0,4.6077,4.6232,4.6254,4.6367,4.6427,4.6416,4.6537,4.6596,4.6714,4.6757,4.6721,4.6938,4.6998,4.7171,4.7216,4.7262,4.7295,4.7246,4.7448,4.7466,4.7484,4.7547,4.7571,4.7278,4.7278,4.7277,4.7277,0,4.6306,4.6413,4.6498,4.6612,4.6682,4.6799,4.6838,4.6907,4.6913,4.6949,4.7095,4.7166,4.7277,4.7319,4.7326,4.7493,4.7471,4.7442,4.7377,4.7512,4.7572,4.7596,4.7285,4.7283,4.7282,4.7281,0,0,4.6504,4.6626,4.6657,4.6708,4.6807,4.6891,4.7007,4.7114,4.7172,4.7255,4.7352,4.7499,4.7472,4.7535,4.7549,4.7628,4.777,4.7589,4.7591,4.7619,4.7957,4.7978,4.8005,4.7762,4.7767,4.7771,4.7949,0,4.6676,4.6879,4.6902,4.7084,4.7183,4.7174,4.7275,4.7347,4.7383,4.7473,4.7514,4.7618,4.7575,4.7612,4.7689,4.7736,4.7838,4.7724,4.7854,4.7858,4.783,4.8037,4.8059,4.8224,4.7972,4.7976,4.7979,0,4.6904,4.6991,4.7182,4.7267,4.7309,4.7399,4.7499,4.7585,4.7666,4.7687,4.7757,4.7761,4.7881,4.7812,4.7978,4.7899,4.7954,4.7985,4.7992,4.8005,4.7926,4.8054,4.8277,4.8302,4.8016,4.8013,4.8011,0,4.7028,4.7193,4.7328,4.7372,4.7474,4.7538,4.7584,4.766,4.7723,4.7811,4.7851,4.7952,4.8007,4.8086,4.8117,4.8064,4.8281,4.8215,4.8302,4.8301,4.8347,4.8344,4.8582,4.8384,4.8383,4.8383,4.8382,0,4.7218,4.7335,4.7385,4.7468,4.7599,4.7625,4.7754,4.7797,4.7865,4.7957,4.7956,4.8042,4.8078,4.8171,4.8196,4.8329,4.8354,4.8375,4.838,4.8374,4.8372,4.841,4.8399,4.839,4.8388,4.8387,4.8386,0,4.7378,4.7416,4.7563,4.7647,4.7671,4.7764,4.7836,4.7917,4.7952,4.8068,4.8097,4.8153,4.8261,4.83,4.8432,4.8449,4.8603,4.8599,4.8575,4.8576,4.8661,4.8652,4.8931,4.8969,4.8747,4.8749,4.875,0,4.7496,4.7586,4.7679,4.7739,4.7787,4.7885,4.7949,4.7977,4.8043,4.8142,4.8211,4.8318,4.8406,4.8579,4.8632,4.8733,4.8731,4.8822,4.8747,4.8738,4.8732,4.8726,4.8735,4.8836,4.8839,4.884,4.8842,0,4.7701,4.7716,4.7807,4.7904,4.798,4.8058,4.8135,4.8185,4.8224,4.8299,4.8409,4.8477,4.8611,4.8717,4.882,4.8868,4.8862,4.8865,4.8891,4.8886,4.8868,4.8878,4.8613,4.8859,4.8857,4.8856,4.8855,4.8854,4.7844,4.7923,4.8,4.8101,4.8161,4.8232,4.8312,4.8356,4.8448,4.8558,4.857,4.8688,4.8767,4.8904,4.8957,4.905,4.9025,4.9062,4.9072,4.908,4.9086,4.8853,4.9069,4.9069,4.9069,4.9068,4.9068,0,4.8049,4.8098,4.819,4.8296,4.8376,4.8361,4.8445,4.8513,4.8616,4.869,4.8775,4.8901,4.9004,4.9065,4.9168,4.9231,4.9231,4.9257,4.9253,4.9264,4.9103,4.907,4.9256,4.9256,4.9256,4.9256,4.9256,4.9256,4.8164,4.8296,4.832,4.8482,4.853,4.8645,4.8693,4.8759,4.8817,4.8958,4.9043,4.9081,4.915,4.9258,4.9352,4.9367,4.9405,4.9434,4.9446,4.9295,4.9275,4.9257,4.9226,4.9442,4.9442,4.96,4.9601,4.9602]},{"header":{"parameterUnit":"m.s-1","parameterCategory":1,"la1":30.2991,"la2":30.254,"lo1":-89.0895,"lo2":-89.0444,"dy":0.0017,"dx":0.0017,"nx":28,"ny":28,"refTime":"2024-06-25T09:00:00:Z","depth":0,"parameterNumber":3,"parameterNumberName":"V-component_of_WINDS"},"data":[0,0,0,0,0,0,0,0,0,0,0,0,0,0,0,0,0,0,0,0,0,0,0,0,0,0,0,0,0,0,0,0,0,0,0,0,0,0,0,0,0,0,0,0,0,0,0,0,0,0,0,0,0,0,0,0,0,0,3.8306,3.8308,0,3.8558,3.8561,3.8564,3.8582,3.858,3.8577,3.8574,3.8834,3.8843,3.8852,0,0,0,0,0,0,0,0,0,0,0,0,0,3.784,3.7849,3.8305,3.8309,3.8312,3.8557,3.8561,3.8564,3.8583,3.8579,3.8576,3.8573,3.883,3.8842,3.8853,0,0,0,0,0,0,0,0,0,0,0,0,0,3.8063,3.7852,3.8305,3.8351,3.8357,3.8557,3.8561,3.8565,3.8584,3.8579,3.8575,3.8571,3.8827,3.8841,3.8855,3.9026,0,0,3.8898,3.8904,0,0,0,0,0,0,0,0,3.805,3.808,3.8341,3.8348,3.8356,3.8534,3.8492,3.872,3.8585,3.8498,3.8574,3.8569,3.8737,3.8759,3.8815,3.9038,3.9049,3.8899,3.8908,3.8914,3.8918,0,0,0,0,0,0,0,3.8034,3.8069,3.8405,3.8345,3.8354,3.8359,3.8386,3.8535,3.8638,3.8505,3.8507,3.8536,3.8741,3.8801,3.8821,3.9053,3.8899,3.8912,3.892,3.8926,3.9429,3.9434,0,0,0,0,0,0,3.801,3.8056,3.8397,3.8413,3.8189,3.837,3.8401,3.8481,3.8636,3.8656,3.854,3.8536,3.8779,3.8805,3.8831,3.9042,3.8914,3.8927,3.8936,3.9424,3.943,3.9435,0,0,0,0,0,0,3.8,3.8041,3.8387,3.8235,3.828,3.8383,3.8473,3.8488,3.8549,3.8663,3.8681,3.8583,3.8777,3.8811,3.8977,3.9051,3.8934,3.8947,3.9419,3.9426,3.9433,3.9466,0,0,0,0,0,0,3.7987,3.8037,3.8103,3.8236,3.8288,3.853,3.8478,3.8496,3.8574,3.8572,3.8708,3.8727,3.8776,3.8956,3.8991,3.9069,3.8958,3.9413,3.9422,3.9431,3.9459,3.9473,3.9486,0,0,0,0,0,3.797,3.8102,3.8106,3.8147,3.8372,3.8534,3.8563,3.8617,3.8579,3.8647,3.872,3.8722,3.9037,3.8973,3.9013,3.9096,3.9408,3.9419,3.943,3.9452,3.947,3.9485,0,0,0,0,0,0,3.7976,3.8121,3.8127,3.8306,3.8407,3.8537,3.8624,3.8634,3.8749,3.8742,3.8804,3.8835,3.9,3.9064,3.899,3.927,3.9219,3.9238,3.9222,3.924,3.9253,3.9235,3.897,0,0,0,0,0,3.7998,3.8116,3.8237,3.8383,3.8434,3.852,3.8592,3.8625,3.8732,3.8776,3.886,3.8965,3.9087,3.9167,3.9286,3.9467,3.9498,3.9544,3.9557,3.9568,3.9585,3.9686,3.9708,3.9471,3.9471,3.9471,0,0,3.8045,3.8139,3.821,3.8387,3.8469,3.8591,3.8556,3.8686,3.8777,3.8795,3.8958,3.9024,3.9145,3.9319,3.9401,3.9378,3.9656,3.9582,3.9589,3.9601,3.9699,3.9721,3.9741,3.9478,3.9477,3.9476,0,0,3.8193,3.8275,3.8407,3.849,3.8615,3.8671,3.8702,3.883,3.8874,3.9038,3.9054,3.9163,3.9373,3.9458,3.9529,3.9708,3.9715,3.9745,3.9817,3.9915,3.9933,3.995,4.0015,4.0037,3.9761,3.9761,3.9761,0,3.8236,3.842,3.8473,3.8604,3.8681,3.8702,3.8836,3.8914,3.9071,3.9124,3.9096,3.936,3.9442,3.9638,3.9681,3.9737,3.9776,3.9731,3.9926,3.9944,3.996,4.0023,4.0047,3.9764,3.9764,3.9763,3.9763,0,3.8467,3.8594,3.8685,3.8836,3.8923,3.9055,3.9128,3.921,3.9235,3.9294,3.946,3.956,3.97,3.9748,3.9773,3.9947,3.9929,3.9913,3.9863,3.9985,4.0044,4.0069,3.9768,3.9767,3.9766,3.9765,0,0,3.8627,3.8805,3.8838,3.8907,3.9045,3.9145,3.9276,3.9413,3.9482,3.9589,3.9702,3.9878,3.9864,3.9944,3.9979,4.0065,4.0201,4.0038,4.0042,4.0066,4.0399,4.0411,4.0438,4.0206,4.021,4.0214,4.0389,0,3.8792,3.9027,3.9078,3.9282,3.94,3.9421,3.9536,3.9633,3.9691,3.98,3.9865,3.9989,3.996,4.0009,4.0094,4.0166,4.0269,4.0154,4.0312,4.0317,4.0282,4.0469,4.0483,4.0644,4.0413,4.0417,4.042,0,3.9016,3.9128,3.9342,3.9465,3.9517,3.9619,3.9748,3.9851,3.9962,3.9998,4.0088,4.0113,4.0251,4.0193,4.0385,4.0305,4.0373,4.0417,4.0425,4.0443,4.0377,4.0494,4.0696,4.0721,4.0457,4.0454,4.0451,0,3.9112,3.9317,3.9472,3.953,3.9677,3.9748,3.9813,3.9919,3.9998,4.011,4.0161,4.0288,4.0358,4.0455,4.0515,4.0467,4.0702,4.0648,4.0736,4.0735,4.0786,4.0783,4.1004,4.0827,4.0827,4.0826,4.0826,0,3.9292,3.9423,3.9517,3.9613,3.976,3.9817,3.9961,4.0026,4.012,4.0229,4.0254,4.0355,4.0427,4.0538,4.0585,4.0737,4.0768,4.0801,4.0813,4.08,4.0796,4.0846,4.0837,4.0833,4.0831,4.083,4.0829,0,3.9426,3.9494,3.9665,3.9789,3.9823,3.9926,4.0033,4.0127,4.0184,4.0321,4.0357,4.0448,4.058,4.0648,4.0814,4.0845,4.1016,4.102,4.0979,4.0984,4.1068,4.106,4.1331,4.137,4.1166,4.1167,4.1169,0,3.9536,3.9637,3.9772,3.9846,3.9912,4.0032,4.0111,4.0171,4.0253,4.0387,4.0464,4.0597,4.0708,4.0918,4.0999,4.1125,4.1133,4.122,4.1153,4.1137,4.1136,4.113,4.1141,4.1232,4.1234,4.1235,4.1237,0,3.9726,3.9754,3.9868,3.9994,4.0089,4.0191,4.0292,4.0351,4.0427,4.0518,4.0653,4.0739,4.0907,4.1039,4.1171,4.1238,4.1251,4.1257,4.1284,4.1273,4.1246,4.1263,4.1013,4.1251,4.1249,4.1248,4.1248,4.1247,3.9853,3.9943,4.0052,4.0178,4.026,4.0354,4.0448,4.0517,4.0631,4.0772,4.08,4.0943,4.1051,4.123,4.13,4.1413,4.1395,4.1435,4.1445,4.1454,4.1459,4.1226,4.1437,4.1437,4.1437,4.1437,4.1436,0,4.0044,4.0115,4.023,4.037,4.0469,4.0471,4.0583,4.0666,4.0791,4.089,4.0998,4.1153,4.1281,4.1372,4.1502,4.1576,4.1585,4.1608,4.1604,4.1619,4.1467,4.1431,4.1598,4.1598,4.1598,4.1598,4.1598,4.1598,4.0156,4.031,4.0351,4.0546,4.0616,4.0756,4.082,4.0906,4.0986,4.1158,4.1264,4.1322,4.1418,4.1555,4.1673,4.1696,4.1744,4.1767,4.1791,4.1647,4.163,4.1614,4.158,4.1777,4.1777,4.1934,4.1936,4.1937]}]]